Home > Weather > Boise > Past weeks

Flag for U.S.A. Weather for the Past 2 Weeks in Boise, Idaho, U.S.A.

Now
29 °F

Ice fog.


Feels Like: 29 °F
Forecast: 31 / 46 °F
Wind: No wind

Location: Boise Air Terminal

Current Time: Feb 7, 2016 at 1:59:45 AM

Latest Report: Feb 7, 2016 at 12:53 AM


Visibility: 6 mi

Pressure: 30.52 "Hg (27.52 "Hg at 822m altitude)

Humidity: 93%

Dew point: 27 °F

Location of BoiseLocation

Historic Weather in Boise — Graph

°F

Boise Temperature Yesterday

Maximum temperature yesterday: 46 °F (at 2:53 PM)
Minimum temperature yesterday: 30 °F (at 11:53 PM)
Average temperature yesterday: 37 °F

High & Low Weather Summary for the Past Weeks

 TemperatureHumidityPressure
High49 °F (Jan 23, 2:53 PM)100% (Jan 28, 6:03 PM)30.61 "Hg (Jan 28, 6:03 PM)
Low21 °F (Feb 1, 3:53 AM)46% (Jan 28, 12:53 PM)29.80 "Hg (Jan 29, 1:53 PM)
Average34 °F78%30.23 "Hg
* Reported Jan 22 11:53 PM — Feb 6 11:53 PM, Boise, Weather by CustomWeather, © 2016

Note: Actual official high and low records may vary slightly from our data, if they occured in-between our weather recording intervals... More about our weather records

Advertising

Boise Weather History for the Previous 24 Hours

 ConditionsComfort  
Time TempWeatherWind HumidityBarometerVisibility
11:53 PM
Sat, Feb 6
30 °FIce fog.No wind92%30.51 "Hg6 mi
10:53 PM31 °FIce fog.No wind92%30.52 "Hg5 mi
9:53 PM33 °FClear.No wind88%30.51 "Hg7 mi
8:53 PM34 °FClear.6 mph85%30.50 "Hg9 mi
7:53 PM37 °FClear.6 mph82%30.49 "Hg10 mi
6:53 PM39 °FSunny.6 mph76%30.48 "Hg10 mi
5:53 PM41 °FPartly sunny.7 mph70%30.47 "Hg10 mi
4:53 PM43 °FPartly sunny.7 mph65%30.46 "Hg10 mi
3:53 PM44 °FPartly sunny.8 mph63%30.45 "Hg10 mi
2:53 PM46 °FScattered clouds.5 mph56%30.45 "Hg10 mi
1:53 PM44 °FOvercast.3 mph60%30.47 "Hg10 mi
12:53 PM43 °FPartly sunny.3 mph62%30.48 "Hg10 mi
11:53 AM40 °FOvercast.6 mph70%30.51 "Hg10 mi
10:53 AM39 °FPartly sunny.5 mph70%30.50 "Hg10 mi
9:53 AM38 °FOvercast.6 mph70%30.47 "Hg10 mi
8:53 AM35 °FOvercast.16 mph72%30.45 "Hg10 mi
7:53 AM34 °FOvercast.14 mph76%30.46 "Hg10 mi
6:53 AM33 °FOvercast.14 mph78%30.45 "Hg10 mi
5:53 AM33 °FPartly cloudy.12 mph78%30.45 "Hg10 mi
4:53 AM33 °FOvercast.No wind85%30.47 "Hg10 mi
3:53 AM34 °FPartly cloudy.8 mph79%30.46 "Hg10 mi
2:53 AM34 °FPassing clouds.15 mph76%30.46 "Hg10 mi
1:53 AM35 °FClear.15 mph75%30.43 "Hg10 mi
Weather by CustomWeather, © 2016

See weather overviewHow to use our weather pages